, MS

(GMT )
West Delta

Weather History for KDLP - February, 2014

Change the Weather History Date:

Sunday, February 2, 2014

  Actual Average Record
Temperature  
Mean Temperature 66 °F -  
Max Temperature 68 °F - - ()
Min Temperature 64 °F - - ()
Cooling Degree Days 1    
Growing Degree Days 16 (Base 50)    
Moisture  
Dew Point 66 °F    
Average Humidity 100    
Maximum Humidity 100    
Minimum Humidity 94    
Precipitation  
Precipitation 0.00 in - - ()
Sea Level Pressure  
Sea Level Pressure 29.99 in    
Wind  
Wind Speed 12 mph (SSE)    
Max Wind Speed 20 mph    
Max Gust Speed 18 mph    
Visibility 1 miles    
Events Fog    
T = Trace of Precipitation, MM = Missing Value Source: NWS Daily Summary

Daily Weather History Graph

Daily Weather History Graph

Search for Another Location

Airport or City:

Trip Planner

Search our weather history database for the weather conditions in past years. The results will help you decide how hot, cold, wet, or windy it might be!

Date:

Astronomy

Feb. 02, 2014 Rise Set
Actual Time 6:46 AM CST 5:37 PM CST
Civil Twilight 6:21 AM CST 6:02 PM CST
Nautical Twilight 5:53 AM CST 6:30 PM CST
Astronomical Twilight 5:25 AM CST 6:58 PM CST
Moon 8:31 AM CST (2/2) 9:00 PM CST (2/2)
Length of Visible Light 11h 40m
Length of Day
10h 51m
Waxing Crescent, 11% of the Moon is Illuminated
Feb 2
Waxing Crescent
Feb 6
First Quarter
Feb 14
Full
Feb 22
Last Quarter
Mar 1
New

Hourly Weather History & Observations

Time (CST) Temp. Dew Point Humidity Pressure Visibility Wind Dir Wind Speed Gust Speed Precip Events Conditions
12:15 AM 64.4 °F 64.4 °F 100% 30.01 in 0.5 mi SSE 12.7 mph - N/A   Overcast
12:35 AM 64.4 °F 64.4 °F 100% 30.01 in 4.0 mi SSE 11.5 mph - N/A   Overcast
12:55 AM 64.4 °F 64.4 °F 100% 30.01 in 3.0 mi SSE 11.5 mph - N/A   Overcast
1:15 AM 64.4 °F 64.4 °F 100% 30.01 in 2.5 mi SSE 10.4 mph - N/A   Overcast
1:35 AM 66.2 °F 66.2 °F 100% 30.00 in 3.0 mi SSE 9.2 mph 15.0 mph N/A   Overcast
1:55 AM 66.2 °F 66.2 °F 100% 30.01 in 3.0 mi SSE 9.2 mph 16.1 mph N/A   Overcast
2:15 AM 66.2 °F 66.2 °F 100% 30.00 in 3.0 mi SE 11.5 mph - N/A   Overcast
2:35 AM 66.2 °F 66.2 °F 100% 30.00 in 0.5 mi North - - N/A Fog Fog
2:55 AM 64.4 °F 64.4 °F 100% 29.99 in 0.2 mi North - - N/A Fog Fog
3:15 AM 64.4 °F 64.4 °F 100% 29.99 in - ESE 16.1 mph - N/A   Overcast
3:35 AM 64.4 °F 64.4 °F 100% 30.00 in 0.5 mi North - - N/A Fog Fog
3:55 AM 66.2 °F 66.2 °F 100% 30.00 in 0.8 mi ESE 15.0 mph - N/A   Overcast
4:15 AM 66.2 °F 66.2 °F 100% 30.00 in 0.5 mi North - - N/A Fog Fog
4:35 AM 66.2 °F 66.2 °F 100% 30.00 in 0.5 mi North - - N/A   Overcast
4:55 AM 64.4 °F 64.4 °F 100% 30.00 in 0.2 mi SE 12.7 mph - N/A Fog Fog
5:15 AM 66.2 °F 66.2 °F 100% 30.00 in 0.2 mi SE 9.2 mph - N/A Fog Fog
5:35 AM 66.2 °F 66.2 °F 100% 30.00 in 0.2 mi SE 9.2 mph - N/A Fog Fog
5:55 AM 68.0 °F 68.0 °F 100% 30.00 in 0.2 mi SE 10.4 mph 16.1 mph N/A Fog Fog
6:15 AM 68.0 °F 68.0 °F 100% 30.01 in 0.2 mi SE 10.4 mph - N/A Fog Fog
6:35 AM 68.0 °F 66.2 °F 94% 30.01 in 0.2 mi North - - N/A Fog Fog
6:55 AM 68.0 °F 68.0 °F 100% 30.01 in 0.2 mi SE 10.4 mph 17.3 mph N/A Fog Fog
7:15 AM 68.0 °F 68.0 °F 100% 30.01 in 0.2 mi SE 12.7 mph - N/A Fog Fog
7:35 AM 66.2 °F 66.2 °F 100% 30.01 in 0.2 mi North - - N/A Fog Fog
7:55 AM 66.2 °F 66.2 °F 100% 30.01 in 0.2 mi SSE 8.1 mph 18.4 mph N/A Fog Fog
8:15 AM 66.2 °F 66.2 °F 100% 30.02 in 0.2 mi SE 8.1 mph - N/A Fog Fog
8:35 AM 66.2 °F 66.2 °F 100% 30.02 in 0.2 mi SSE 8.1 mph 15.0 mph N/A Fog Fog
8:55 AM 66.2 °F 66.2 °F 100% 30.02 in 0.2 mi SE 11.5 mph - N/A Fog Fog
9:15 AM 66.2 °F 66.2 °F 100% 30.02 in 0.2 mi SE 9.2 mph 16.1 mph N/A Fog Fog
9:35 AM 66.2 °F 66.2 °F 100% 30.02 in 0.2 mi SSE 9.2 mph - N/A Fog Fog
9:55 AM 66.2 °F 66.2 °F 100% 30.02 in 0.2 mi SSE 13.8 mph - N/A Fog Fog
10:15 AM 66.2 °F 66.2 °F 100% 30.01 in 0.2 mi SSE 12.7 mph - N/A Fog Fog
10:35 AM 66.2 °F 66.2 °F 100% 30.01 in 0.2 mi SSE 8.1 mph - N/A Fog Fog
10:55 AM 66.2 °F 66.2 °F 100% 30.01 in 0.2 mi SSE 9.2 mph - N/A Fog Fog
11:15 AM 68.0 °F 68.0 °F 100% 30.00 in 0.2 mi SE 9.2 mph - N/A Fog Fog
11:35 AM 68.0 °F 68.0 °F 100% 29.99 in 0.2 mi SSE 10.4 mph - N/A Fog Fog
11:55 AM 66.2 °F 66.2 °F 100% 29.98 in 0.2 mi SSE 9.2 mph - N/A Fog Fog
12:15 PM 66.2 °F 66.2 °F 100% 29.97 in 0.2 mi SSE 8.1 mph - N/A Fog Fog
12:35 PM 68.0 °F 68.0 °F 100% 29.95 in 0.2 mi SSE 9.2 mph 16.1 mph N/A Fog Fog
12:55 PM 68.0 °F 68.0 °F 100% 29.94 in 0.2 mi SSE 11.5 mph 17.3 mph N/A Fog Fog
1:15 PM 66.2 °F 66.2 °F 100% 29.93 in 0.2 mi SSE 10.4 mph - N/A Fog Fog
1:35 PM 66.2 °F 66.2 °F 100% 29.92 in 0.2 mi SSE 16.1 mph - N/A Fog Fog
1:55 PM 66.2 °F 66.2 °F 100% 29.92 in 0.2 mi SSE 19.6 mph - N/A Fog Fog
2:15 PM 68.0 °F 68.0 °F 100% 29.91 in 0.2 mi SSE 19.6 mph - N/A Fog Fog
2:35 PM 68.0 °F 68.0 °F 100% 29.92 in 0.2 mi South 17.3 mph - N/A Fog Fog
2:55 PM 68.0 °F 68.0 °F 100% 29.92 in 0.2 mi SSE 19.6 mph - N/A Fog Fog